Wind_Speed
30 26 24 25 24 22 17 17 20 16 16 14 12 10 12 13 13 12 13 13 13 13 12 13 12 12 11 10 8 6 5 4 3 2 1 2 3 3 3 2 1 1 1
32 29 25 29 26 24 22 21 24 23 19 18 16 13 12 15 16 16 15 15 16 16 15 16 15 15 14 13 12 10 8 7 6 6 5 5 5 5 4 3 2 2 1
36 31 29 30 28 28 31 26 24 23 23 21 20 18 16 16 19 20 19 18 18 18 18 18 18 17 17 16 15 12 12 10 9 9 9 8 7 7 5 5 4 4 4
42 37 35 33 31 30 31 28 28 28 25 26 25 23 21 20 20 22 22 22 21 20 19 19 20 20 20 19 17 16 14 14 13 12 11 10 9 9 7 7 5 5 4
45 44 42 39 35 37 34 36 36 37 32 33 32 29 26 24 22 22 23 23 22 22 22 23 22 23 22 21 20 19 18 18 17 14 13 13 12 10 9 9 8 7 6
48 47 46 47 42 41 41 39 42 42 38 34 34 33 31 28 24 23 23 23 23 23 24 25 26 25 24 23 22 21 21 20 20 18 16 15 15 13 11 11 10 10 10
50 51 50 49 48 49 45 44 47 44 34 31 34 33 34 31 27 25 23 23 25 25 25 25 26 27 27 25 23 22 22 22 22 21 20 18 17 16 15 14 14 14 14
53 53 53 50 50 53 52 49 49 41 37 33 33 35 37 35 28 26 23 24 25 27 27 26 27 27 28 27 25 23 23 24 24 24 23 21 21 19 18 17 17 17 17
50 55 56 54 51 53 55 55 49 46 39 35 36 37 35 37 29 28 26 26 27 27 28 28 28 27 27 26 25 25 25 25 25 25 25 24 23 22 21 20 20 20 20
49 52 55 59 54 57 55 53 53 46 42 37 41 37 31 39 33 32 31 30 29 29 29 30 31 31 29 28 27 27 26 25 25 26 26 27 26 24 23 23 23 24 23
51 54 54 55 60 60 55 55 50 44 40 34 35 40 35 34 38 34 32 30 32 31 31 31 33 35 34 30 28 28 28 29 27 27 28 28 27 25 24 25 26 27 28
50 52 53 52 56 60 59 53 45 43 40 35 35 41 43 40 39 40 38 37 35 35 36 36 35 35 34 31 30 30 30 30 29 28 28 28 28 27 27 28 29 30 30
47 50 47 44 46 54 60 56 48 45 43 39 35 34 41 39 44 46 48 41 41 40 39 38 37 36 35 32 31 31 32 31 30 29 29 29 29 29 29 30 32 33 33
45 45 42 43 43 44 56 59 50 46 45 43 37 33 32 38 42 44 46 45 45 45 42 40 41 38 36 35 35 34 34 32 31 32 32 31 31 31 32 34 35 35 36
46 45 47 44 42 46 50 59 58 55 51 47 42 40 35 35 41 46 44 50 47 48 44 45 43 43 42 40 39 38 37 36 34 34 34 33 34 35 36 38 39 40 40
48 47 50 48 43 43 48 51 57 61 57 53 50 46 42 38 40 41 44 46 53 51 49 48 46 46 47 44 43 42 40 40 38 37 38 39 38 38 39 41 43 43 44
51 50 50 51 48 46 47 49 52 57 59 57 54 52 49 50 46 44 44 45 44 52 53 51 51 50 48 47 47 45 46 44 43 43 42 42 41 41 42 44 45 45 47
48 51 53 48 48 49 51 52 52 54 57 59 58 54 52 53 50 47 47 46 47 47 45 46 52 55 50 54 51 51 52 48 47 46 47 46 45 46 46 46 45 46 48
53 53 49 47 48 50 54 54 56 54 56 59 59 58 56 56 56 54 54 53 52 54 53 52 50 54 50 55 53 54 53 51 48 48 47 48 47 46 47 47 46 47 49
50 49 48 46 49 51 51 53 54 60 61 57 62 58 58 60 60 58 58 56 62 65 63 60 57 58 56 55 53 55 54 52 50 51 50 51 53 50 50 47 48 49 49
57 55 53 52 53 53 54 57 50 57 53 57 51 49 53 57 60 63 58 61 62 65 63 63 63 64 63 60 59 57 60 59 58 59 55 54 55 56 54 53 53 48 49
57 58 57 55 58 59 59 60 50 62 55 62 56 52 51 58 60 52 42 52 63 48 46 62 53 57 71 62 51 39 64 73 67 61 61 57 59 59 57 55 55 50 48
54 63 64 63 62 55 60 64 55 39 37 53 52 49 42 36 34 36 38 29 26 27 28 48 42 37 23 27 38 49 32 51 58 66 65 55 56 57 59 58 57 60 54
63 64 68 69 65 60 63 57 50 61 43 46 45 44 34 40 38 38 40 36 33 33 31 26 24 29 31 37 37 39 38 30 33 45 42 41 47 45 41 41 38 48 44
58 66 65 60 62 72 66 67 64 60 52 44 42 40 37 44 40 42 42 39 39 39 36 36 35 38 39 41 42 44 44 42 40 39 38 41 45 54 45 43 43 42 39
63 70 70 66 65 64 60 61 69 64 61 62 49 48 49 49 47 44 46 45 45 43 42 42 42 41 42 43 45 48 45 42 41 43 43 42 43 44 43 41 39 40 42
Wind_Direction
212 213 212 220 213 224 222 212 201 204 216 223 232 220 209 210 217 216 217 220 224 230 229 228 226 220 224 225 226 229 239 240 245 250 293 331 352 20 39 63 108 271 10
215 219 215 219 218 223 216 234 232 203 210 220 231 232 226 217 219 222 221 223 226 228 231 235 233 232 229 233 236 239 247 253 254 261 268 279 294 298 295 291 270 256 280
217 218 218 218 226 227 199 218 236 214 215 214 227 236 235 232 223 224 226 225 227 230 231 232 232 231 230 232 237 243 250 254 260 264 265 270 278 275 272 273 270 264 270
216 217 220 216 217 222 226 233 243 243 227 219 219 229 235 237 233 226 226 229 231 231 235 236 234 231 229 230 236 242 247 253 254 259 265 267 264 264 250 246 248 256 262
221 218 218 220 219 222 227 223 231 242 228 224 220 222 231 236 239 236 232 232 235 236 235 236 235 234 232 232 235 241 247 252 256 258 262 264 260 254 253 243 240 242 242
219 226 222 218 218 223 227 229 239 237 246 225 236 226 227 230 235 239 237 236 236 236 238 239 238 237 238 239 239 241 246 252 257 260 260 259 262 255 248 247 244 244 249
219 221 228 228 226 226 226 229 235 241 231 231 236 233 230 229 231 235 239 240 239 237 237 240 242 242 242 242 244 246 248 251 255 257 258 259 258 257 253 247 248 251 260
224 222 224 227 228 230 228 230 238 234 237 240 239 232 232 230 225 230 233 240 240 239 239 239 242 243 244 245 246 247 249 250 252 255 257 257 257 255 253 250 250 254 261
228 229 226 226 228 232 232 233 233 229 235 241 234 232 240 229 225 228 229 234 239 239 240 241 245 247 248 250 250 249 248 249 250 251 253 256 256 253 256 255 256 260 267
235 236 233 228 227 234 237 239 237 228 231 237 234 226 231 227 217 223 226 228 235 240 241 245 247 251 250 249 249 248 249 248 249 252 252 254 255 252 252 255 259 264 270
235 238 239 237 233 235 235 237 233 228 229 230 228 224 226 222 219 220 229 234 237 242 244 246 247 250 251 253 253 253 253 251 249 249 250 253 256 253 253 255 258 266 273
235 237 241 237 234 236 239 240 236 228 229 232 226 222 225 224 222 224 227 233 235 241 243 244 248 251 253 255 256 255 255 255 255 254 254 256 257 254 255 258 262 267 272
236 239 242 242 237 235 239 241 238 237 236 234 231 228 228 228 221 226 227 229 241 244 247 249 252 253 255 259 261 261 259 257 256 254 256 257 257 257 258 261 264 268 272
236 239 239 241 238 236 234 238 241 240 238 238 238 234 230 227 223 226 227 232 232 243 245 246 249 254 256 256 257 259 262 260 258 257 254 253 256 258 261 263 265 268 270
236 237 236 238 239 236 235 234 236 239 239 239 238 239 235 235 229 230 231 235 234 240 242 245 248 250 252 254 257 258 259 261 259 258 259 259 258 258 259 261 263 265 266
235 238 240 239 242 245 234 236 236 238 240 242 241 242 245 243 242 241 243 241 235 238 241 245 247 250 253 255 258 259 259 259 260 259 259 258 259 260 262 264 266 268 271
231 236 240 238 239 244 242 241 239 238 239 241 243 243 244 247 245 245 249 254 251 241 243 243 247 248 252 254 256 257 258 259 258 259 260 261 262 262 264 266 270 272 275
232 235 236 238 239 241 242 241 241 239 239 240 243 243 242 246 249 252 252 256 258 257 254 244 244 247 246 253 253 255 258 261 263 264 264 263 264 265 266 268 272 276 278
227 230 235 237 241 242 240 242 242 242 239 239 240 242 243 245 246 250 252 251 253 256 253 252 251 250 248 251 254 256 257 257 260 262 266 270 269 269 270 271 274 277 279
231 233 235 235 240 243 245 246 248 247 243 241 239 239 242 245 246 247 253 260 258 253 253 250 251 251 248 248 251 254 257 259 258 259 260 263 267 268 269 273 274 275 281
232 233 233 236 237 242 244 244 249 237 235 231 237 241 247 253 250 251 253 264 258 251 246 253 251 251 247 247 246 251 256 256 257 260 261 264 265 268 270 272 275 275 276
230 235 234 234 238 241 246 246 225 244 246 238 235 236 248 237 241 249 260 261 252 261 253 258 248 258 257 251 251 273 260 252 252 257 257 261 264 267 271 273 274 278 280
238 241 238 238 239 235 243 245 252 240 230 229 232 232 236 237 236 241 255 243 250 270 286 247 247 249 259 256 252 261 294 261 252 261 259 263 264 268 270 268 272 277 278
233 236 235 236 242 239 244 249 252 248 233 239 229 247 249 242 249 253 255 254 250 254 258 260 246 241 247 254 256 262 273 277 266 263 277 274 266 263 288 297 267 269 274
239 239 234 224 235 240 244 249 248 246 260 231 241 244 238 249 244 251 252 252 253 254 251 252 255 255 258 260 264 267 268 266 271 257 264 267 273 272 276 271 267 276 278
229 235 236 243 244 243 244 244 248 247 246 251 244 249 254 247 252 257 258 256 257 255 257 256 254 250 256 260 260 262 269 269 265 265 267 268 265 265 265 268 268 269 273
Height
5832 5835 5839 5841 5842 5845 5847 5849 5852 5854 5857 5859 5861 5863 5865 5868 5870 5872 5874 5876 5877 5879 5880 5882 5884 5885 5886 5887 5888 5889 5890 5891 5891 5892 5892 5893 5893 5893 5892 5892 5891 5890 5889
5826 5829 5833 5837 5837 5840 5842 5845 5848 5850 5852 5855 5858 5861 5863 5865 5867 5869 5871 5873 5875 5877 5878 5880 5882 5884 5885 5886 5887 5888 5889 5889 5891 5891 5892 5892 5893 5892 5892 5892 5891 5890 5889
5819 5823 5826 5831 5834 5836 5835 5839 5843 5846 5850 5852 5855 5858 5860 5862 5863 5866 5868 5870 5872 5874 5876 5877 5879 5881 5883 5883 5885 5886 5886 5887 5888 5890 5891 5891 5891 5891 5891 5890 5890 5889 5888
5810 5815 5820 5825 5830 5831 5832 5836 5839 5841 5845 5847 5850 5853 5855 5858 5860 5862 5865 5867 5869 5871 5873 5874 5876 5877 5879 5880 5882 5883 5884 5885 5885 5887 5887 5888 5888 5889 5888 5888 5888 5887 5886
5804 5807 5812 5817 5824 5826 5828 5830 5833 5836 5838 5841 5844 5848 5851 5853 5856 5859 5861 5863 5866 5868 5870 5871 5872 5874 5875 5876 5878 5879 5880 5882 5883 5884 5884 5885 5886 5886 5886 5886 5885 5885 5884
5793 5800 5804 5807 5815 5818 5822 5825 5827 5829 5831 5835 5838 5842 5845 5848 5851 5854 5857 5859 5861 5864 5865 5867 5868 5870 5872 5873 5875 5877 5877 5879 5879 5881 5881 5882 5883 5883 5883 5883 5883 5882 5881
5784 5790 5794 5800 5807 5810 5815 5818 5819 5821 5824 5828 5832 5836 5840 5843 5847 5849 5853 5855 5857 5859 5860 5862 5863 5865 5867 5869 5871 5873 5874 5875 5876 5877 5878 5879 5879 5880 5881 5881 5880 5879 5879
5774 5779 5785 5791 5798 5801 5806 5808 5811 5815 5819 5822 5826 5829 5832 5838 5842 5845 5848 5850 5852 5854 5856 5857 5858 5860 5862 5863 5865 5867 5869 5871 5872 5873 5874 5874 5875 5876 5877 5877 5878 5877 5876
5764 5770 5775 5782 5788 5791 5794 5798 5803 5808 5812 5814 5818 5823 5825 5832 5837 5839 5842 5844 5846 5848 5850 5852 5853 5854 5856 5858 5860 5861 5863 5865 5867 5868 5868 5869 5871 5872 5873 5873 5873 5873 5873
5756 5760 5764 5772 5777 5779 5783 5788 5791 5799 5802 5808 5810 5815 5819 5824 5830 5833 5835 5837 5840 5842 5844 5846 5847 5848 5850 5852 5854 5856 5857 5859 5861 5863 5863 5864 5865 5867 5868 5868 5869 5869 5869
5745 5749 5752 5760 5766 5767 5774 5776 5783 5788 5794 5798 5803 5807 5813 5818 5822 5826 5829 5833 5833 5836 5838 5840 5840 5841 5844 5847 5850 5851 5852 5853 5855 5857 5858 5859 5860 5862 5862 5863 5863 5864 5864
5734 5738 5743 5747 5755 5759 5762 5768 5775 5778 5785 5790 5794 5799 5804 5811 5817 5819 5821 5824 5826 5829 5830 5832 5834 5836 5838 5842 5844 5846 5846 5848 5851 5853 5854 5855 5855 5856 5858 5858 5858 5858 5858
5721 5728 5734 5738 5744 5751 5755 5759 5766 5769 5775 5781 5787 5792 5797 5802 5806 5810 5811 5815 5818 5820 5824 5827 5829 5831 5833 5836 5838 5840 5840 5843 5844 5846 5848 5850 5851 5852 5852 5852 5852 5852 5852
5712 5718 5723 5727 5733 5738 5745 5749 5753 5758 5764 5771 5779 5783 5788 5793 5798 5802 5806 5807 5809 5811 5815 5819 5820 5824 5827 5829 5830 5832 5834 5837 5839 5840 5841 5842 5844 5845 5846 5845 5845 5846 5846
5703 5707 5713 5717 5723 5728 5733 5740 5746 5750 5753 5761 5767 5774 5780 5784 5789 5793 5796 5798 5802 5801 5807 5809 5813 5815 5816 5819 5821 5824 5826 5829 5831 5833 5835 5836 5837 5837 5837 5837 5837 5836 5837
5693 5698 5704 5709 5712 5717 5724 5730 5736 5741 5744 5751 5758 5764 5770 5777 5780 5783 5787 5790 5791 5794 5798 5801 5804 5805 5807 5810 5812 5814 5818 5819 5822 5824 5826 5827 5828 5829 5830 5830 5828 5828 5828
5681 5687 5694 5698 5702 5708 5714 5719 5725 5731 5735 5741 5746 5754 5762 5765 5770 5774 5776 5779 5783 5786 5789 5793 5793 5795 5798 5800 5802 5805 5806 5809 5812 5813 5815 5817 5819 5820 5820 5820 5820 5820 5819
5670 5676 5681 5686 5692 5698 5703 5708 5713 5718 5725 5729 5735 5741 5748 5753 5758 5764 5766 5770 5774 5777 5780 5783 5783 5782 5790 5788 5791 5794 5795 5800 5803 5805 5805 5806 5808 5809 5810 5810 5810 5811 5810
5659 5664 5672 5675 5681 5686 5689 5694 5700 5705 5711 5717 5723 5728 5735 5739 5744 5749 5755 5758 5762 5764 5768 5771 5774 5773 5779 5778 5782 5783 5785 5786 5791 5792 5794 5796 5798 5797 5798 5799 5800 5799 5798
5649 5654 5660 5666 5671 5676 5679 5684 5689 5692 5697 5703 5708 5714 5720 5724 5730 5735 5738 5743 5746 5749 5753 5757 5761 5763 5767 5767 5769 5771 5774 5777 5777 5778 5782 5782 5783 5784 5784 5787 5788 5787 5787
5637 5643 5648 5654 5659 5665 5667 5674 5674 5679 5670 5683 5696 5703 5707 5712 5717 5723 5726 5727 5730 5734 5738 5742 5745 5747 5751 5756 5756 5760 5760 5762 5764 5765 5769 5772 5771 5771 5771 5772 5774 5776 5774
5624 5631 5635 5639 5644 5651 5659 5652 5662 5666 5672 5677 5686 5691 5696 5695 5700 5709 5712 5710 5715 5720 5721 5723 5728 5731 5739 5741 5744 5747 5745 5744 5747 5751 5753 5758 5758 5759 5761 5761 5764 5760 5759
5611 5618 5620 5624 5630 5637 5639 5645 5652 5656 5659 5665 5672 5672 5676 5685 5690 5696 5699 5699 5704 5708 5708 5707 5714 5723 5727 5730 5734 5733 5730 5728 5737 5738 5740 5745 5747 5748 5749 5748 5750 5750 5747
5597 5603 5607 5610 5616 5621 5628 5631 5639 5644 5650 5656 5657 5663 5669 5675 5681 5686 5688 5691 5694 5699 5700 5703 5706 5712 5717 5717 5719 5720 5721 5719 5723 5725 5728 5730 5733 5735 5735 5736 5735 5735 5734
5582 5586 5595 5590 5603 5609 5615 5619 5625 5631 5638 5643 5647 5653 5658 5665 5671 5677 5679 5680 5684 5688 5690 5693 5696 5700 5702 5705 5707 5708 5708 5710 5713 5715 5717 5718 5721 5722 5723 5722 5723 5723 5722
5568 5574 5578 5583 5588 5593 5599 5604 5609 5617 5624 5632 5635 5639 5645 5651 5657 5663 5666 5669 5673 5678 5680 5681 5683 5685 5690 5691 5693 5696 5698 5701 5703 5705 5707 5707 5708 5708 5709 5710 5709 5710 5710